NOAA 16 DEB, 41362

Orbit data source: Space-Track

NOAA 16 DEB, 41362 is space debris in SSO originally from a launch on Thu, 21 Sep 2000 UTC launched from the Air Force Western Test Range (AFWTR). Debris objects in space refer to the collection of defunct objects orbiting the Earth. Examples of debris include non-operational satellites, rocket bodies, and fragments generated from explosions, collisions, or faulty payload assembly.

Loading next visibility...
Identifier
41362, 2000-055JF
Orbit
SSO
Country
Flag of USUS
Related business
Manufacturer
Unknown
Mission
Spacecraft
Bus & Motor
Unknown
Mass
Unknown
Launch date (UTC)
2000-09-21 (26 years ago)
Launch vehicle
Unknown
Launch site
Air Force Western Test Range (AFWTR)
Object type
Payload
Rocket body
Debris
Shape & HBR
Unknown shape, 0.1 m
Radar Cross Section
Medium (>0.1 m² and <1 m²)

Expand to show TLE details & history
Last TLE update: 10 hours ago

TLE from 10 hours ago
0 NOAA 16 DEB
1 41362U 00055JF  26235.91327347  .00006266  00000-0  12476-2 0  9992
2 41362  98.9514 106.5638 0028378 160.4405 199.7889 14.62184548552759
Epoch: 2026-08-23T21:55Z
TLE epoch observation values (Epoch: 2026-08-23T21:55:06.827Z)
Latitude
-0.00007°
Longitude
165.58286°
Altitude
707.967 km
Speed
7.492 km/s
True Right ascension
07h 06m 15s
True Declination
0° 00' 00"
Sunlit
Object was in daylight at epoch
Visualization orbit readout
Latitude
Unknown
Longitude
Unknown
Altitude
Unknown
Speed
Unknown
Apparent Right ascension
Unknown
Apparent Declination
Unknown
Sunlit
N/A
Visualization observer readout
Local Sidereal Time
22:43:38
Azimuth
Unknown
Elevation
Unknown
Doppler factor
Unknown
Orbital elements
Apogee altitude
703.282 km
Perigee altitude
663.205 km
Semi-major axis
7,061.38 km
Eccentricity
0.00284
Inclination
98.9514°
RAAN
106.5638°
Arg. of periapsis
160.4405°
True anomaly
199.67917°
Mean anomaly
199.7889°
Eccentric anomaly
199.734°
Mean motion
3.65771 °/min
Orbital period
98.42 mins
BSTAR
0.0012476
Loading maneuver chart data...
Computing Atmospheric mass density...
Loading historical data...
Loading historical data...
Loading historical data...
Loading historical data...
Loading historical data...
Loading historical data...
Loading historical data...

Documentation

Showing up to 5 results
|